Weather History for Nassau, Bahamas

Change the Weather History Date:

Tuesday, August 26, 2014

  Actual Average Record
Temperature  
Mean Temperature 84 °F -  
Max Temperature 92 °F 88 °F 95 °F (2010)
Min Temperature 75 °F 74 °F 48 °F (1999)
Cooling Degree Days 18    
Growing Degree Days 34 (Base 50)    
Moisture  
Dew Point 75 °F    
Average Humidity 76    
Maximum Humidity 94    
Minimum Humidity 60    
Precipitation  
Precipitation 0.51 in 0.23 in - ()
Sea Level Pressure  
Sea Level Pressure 29.81 in    
Wind  
Wind Speed 11 mph ()    
Max Wind Speed 18 mph    
Max Gust Speed -    
Visibility 6.3 miles    
Events Rain    
Averages and records for this station are not official NWS values.
T = Trace of Precipitation, MM = Missing Value Source: Averaged Metar Reports

Daily Weather History Graph

Daily Weather History Graph

Search for Another Location

Airport:

Trip Planner

Search our weather history database for the weather conditions in past years. The results will help you decide how hot, cold, wet, or windy it might be!

Date:

Astronomy

Aug. 26, 2014 Rise Set
Actual Time 6:48 AM EDT 7:34 PM EDT
Civil Twilight 6:24 AM EDT 7:57 PM EDT
Nautical Twilight 5:57 AM EDT 8:25 PM EDT
Astronomical Twilight 5:29 AM EDT 8:53 PM EDT
Moon 7:36 AM EDT 8:08 PM EDT
Length of Visible Light 13h 32m
Length of Day
12h 46m
New Moon, 1% of the Moon is Illuminated
Aug 26
New Moon
Sep 2
First Quarter
Sep 8
Full
Sep 15
Last Quarter
Sep 24
New

Hourly Weather History & Observations

Time (EDT) Temp. Heat Index Dew Point Humidity Pressure Visibility Wind Dir Wind Speed Gust Speed Precip Events Conditions
12:00 AM 84.2 °F 92.3 °F 75.2 °F 74% 29.75 in 6.2 mi NE 15.0 mph - N/A   Scattered Clouds
1:00 AM 84.2 °F 92.3 °F 75.2 °F 74% 29.74 in 6.2 mi NNE 16.1 mph - N/A   Scattered Clouds
2:00 AM 84 °F - 76 °F 71% 29.74 in 8 mi NNE 16.1 mph - -   Partly Cloudy
2:00 AM 84.2 °F 92.3 °F 75.2 °F 74% 29.73 in 6.2 mi NNE 16.1 mph - N/A   Mostly Cloudy
3:00 AM 84.2 °F 92.3 °F 75.2 °F 74% 29.73 in 6.2 mi NNE 18.4 mph - N/A   Mostly Cloudy
4:00 AM 82.4 °F 89.5 °F 75.2 °F 79% 29.73 in 6.2 mi NNE 13.8 mph - N/A   Scattered Clouds
5:00 AM 81 °F - 78 °F 87% 29.74 in 6 mi NNE 9.2 mph - - Rain Light Rain Showers
5:00 AM 80.6 °F 87.1 °F 77.0 °F 89% 29.74 in 5.6 mi NNE 9.2 mph - N/A Rain Rain Showers
6:00 AM 82.4 °F 89.5 °F 75.2 °F 79% 29.75 in 6.2 mi North 13.8 mph - N/A   Scattered Clouds
7:00 AM 80.6 °F 86.2 °F 75.2 °F 84% 29.77 in 6.2 mi North 13.8 mph - N/A   Scattered Clouds
8:00 AM 83 °F - 76 °F 75% 29.79 in 8 mi NNE 11.5 mph - -   Partly Cloudy
8:00 AM 82.4 °F 90.9 °F 77.0 °F 84% 29.79 in 6.2 mi NNE 11.5 mph - N/A   Scattered Clouds
9:00 AM 84.2 °F 92.3 °F 75.2 °F 74% 29.80 in 6.2 mi ENE 11.5 mph - N/A   Scattered Clouds
10:00 AM 85 °F - 74 °F 64% 29.83 in 8 mi NNE 11.5 mph - -   Partly Cloudy
10:00 AM 84.2 °F 92.3 °F 75.2 °F 74% 29.81 in 6.2 mi NNE 11.5 mph - N/A   Scattered Clouds
11:00 AM 86.0 °F 95.1 °F 75.2 °F 70% 29.83 in 6.2 mi NNE 11.5 mph - N/A   Scattered Clouds
12:00 PM 87.8 °F 95.6 °F 73.4 °F 62% 29.82 in 6.2 mi NNE 13.8 mph - N/A   Scattered Clouds
1:00 PM 87.8 °F 97.6 °F 75.2 °F 66% 29.83 in 6.2 mi NE 5.8 mph - N/A   Scattered Clouds
2:00 PM 89 °F - 77 °F 60% 29.83 in 8 mi NNE 6.9 mph - -   Partly Cloudy
2:00 PM 89.6 °F 102.2 °F 77.0 °F 66% 29.83 in 6.2 mi NNE 6.9 mph - N/A   Scattered Clouds
3:00 PM 87.8 °F 97.6 °F 75.2 °F 66% 29.82 in 6.2 mi NE 9.2 mph - N/A   Scattered Clouds
4:00 PM 87.8 °F 95.6 °F 73.4 °F 62% 29.81 in 6.2 mi NNE 8.1 mph - N/A Rain Light Rain Showers
5:00 PM 86 °F - 78 °F 70% 29.81 in 8 mi NE 6.9 mph - - Rain Light Rain Showers
5:00 PM 86.0 °F 96.9 °F 77.0 °F 74% 29.81 in 6.2 mi NE 6.9 mph - N/A   Scattered Clouds
6:00 PM 86.0 °F 93.4 °F 73.4 °F 66% 29.81 in 6.2 mi NE 6.9 mph - N/A   Scattered Clouds
7:00 PM 80.6 °F 85.4 °F 73.4 °F 79% 29.82 in 6.2 mi NNE 11.5 mph - N/A Rain Light Rain Showers
8:00 PM 81 °F - 78 °F 86% 29.85 in 8 mi NNE 3.5 mph - - Rain Light Rain Showers
8:00 PM 80.6 °F 87.1 °F 77.0 °F 89% 29.84 in 6.2 mi NNE 3.5 mph - N/A Rain Light Rain Showers
9:00 PM 78.8 °F - 73.4 °F 83% 29.86 in 6.2 mi Variable 5.8 mph - N/A   Mostly Cloudy
9:30 PM 77.0 °F - 73.4 °F 89% 29.88 in 1.7 mi Variable 10.4 mph - N/A Rain Heavy Rain Showers
10:00 PM 75.2 °F - 73.4 °F 94% 29.89 in 4.7 mi NNE 4.6 mph - N/A Rain Light Rain
11:00 PM 78 °F - 74 °F 86% 29.91 in 7 mi East 4.6 mph - - Rain Light Rain
11:00 PM 77.0 °F - 75.2 °F 94% 29.91 in 6.2 mi East 4.6 mph - N/A Rain Light Rain